Total_Precipitation_Accumulation
0.23 0.24 0.28 0.28 0.21 0.21 0.26 0.27 0.17 0.05 0.03 0.02 0.02 0.02 0.03 0.02 0.01 0.01 0.01 0.01 0.02 0.01 0.01 0.02 0.02 0.02 0.02 0.01 0.01 0.02 0.01 0.02 0.03 0.05 0.11 0.17 0.20 0.24 0.32 0.41 0.49 0.53 0.55 0.56
0.16 0.13 0.18 0.20 0.14 0.13 0.12 0.10 0.08 0.04 0.03 0.03 0.02 0.02 0.02 0.03 0.03 0.02 0.02 0.02 0.02 0.02 0.03 0.04 0.03 0.03 0.02 0.02 0.03 0.02 0.02 0.03 0.06 0.12 0.19 0.26 0.30 0.33 0.40 0.46 0.49 0.48 0.49 0.50
0.26 0.15 0.24 0.28 0.15 0.11 0.09 0.06 0.04 0.05 0.04 0.03 0.03 0.02 0.02 0.03 0.05 0.05 0.03 0.03 0.02 0.03 0.04 0.04 0.04 0.04 0.04 0.03 0.03 0.02 0.04 0.07 0.10 0.14 0.18 0.21 0.24 0.29 0.34 0.32 0.28 0.31 0.37 0.36
0.34 0.31 0.49 0.26 0.10 0.08 0.08 0.07 0.06 0.05 0.03 0.03 0.03 0.03 0.02 0.02 0.04 0.04 0.05 0.06 0.05 0.05 0.04 0.03 0.03 0.03 0.03 0.02 0.01 0.02 0.04 0.07 0.10 0.13 0.16 0.15 0.14 0.18 0.21 0.18 0.18 0.21 0.22 0.19
0.45 0.41 0.27 0.12 0.08 0.11 0.12 0.14 0.09 0.07 0.04 0.02 0.03 0.04 0.04 0.05 0.03 0.05 0.05 0.06 0.06 0.06 0.04 0.03 0.02 0.02 0.02 0.01 0.01 0.02 0.04 0.05 0.07 0.11 0.14 0.12 0.10 0.11 0.14 0.15 0.14 0.13 0.12 0.09
0.50 0.40 0.22 0.12 0.06 0.08 0.13 0.19 0.09 0.06 0.05 0.04 0.05 0.14 0.11 0.09 0.06 0.05 0.03 0.03 0.04 0.04 0.02 0.01 0.01 0.01 0.01 0.00 0.00 0.01 0.02 0.03 0.03 0.04 0.06 0.05 0.04 0.04 0.05 0.06 0.07 0.06 0.05 0.04
0.46 0.30 0.13 0.08 0.07 0.10 0.25 0.29 0.12 0.07 0.06 0.06 0.10 0.18 0.15 0.09 0.06 0.05 0.03 0.02 0.02 0.02 0.02 0.01 0.01 0.00 0.00 0.00 0.00 0.00 0.00 0.00 0.00 0.01 0.01 0.01 0.02 0.02 0.03 0.03 0.04 0.04 0.04 0.03
0.40 0.33 0.16 0.08 0.12 0.24 0.27 0.13 0.08 0.06 0.04 0.05 0.05 0.04 0.04 0.04 0.04 0.03 0.02 0.02 0.02 0.01 0.01 0.00 0.00 0.00 0.00 0.00 0.00 0.00 0.00 0.00 0.00 0.01 0.01 0.01 0.02 0.03 0.03 0.03 0.04 0.05 0.04 0.04
0.30 0.21 0.12 0.08 0.13 0.16 0.11 0.07 0.06 0.06 0.05 0.06 0.04 0.02 0.02 0.02 0.03 0.02 0.02 0.02 0.01 0.01 0.00 0.00 0.00 0.00 0.00 0.00 0.00 0.00 0.00 0.00 0.01 0.01 0.01 0.02 0.03 0.03 0.04 0.05 0.07 0.09 0.08 0.07
0.13 0.08 0.05 0.05 0.06 0.07 0.07 0.06 0.04 0.05 0.07 0.06 0.04 0.02 0.01 0.01 0.02 0.03 0.02 0.01 0.01 0.01 0.00 0.00 0.00 0.00 0.00 0.00 0.00 0.00 0.00 0.01 0.01 0.01 0.02 0.02 0.03 0.04 0.05 0.08 0.19 0.23 0.18 0.15
0.08 0.04 0.03 0.03 0.04 0.04 0.04 0.03 0.03 0.03 0.04 0.04 0.03 0.02 0.01 0.01 0.01 0.02 0.02 0.01 0.01 0.01 0.00 0.00 0.00 0.00 0.00 0.00 0.00 0.00 0.01 0.01 0.01 0.02 0.03 0.04 0.04 0.04 0.07 0.10 0.27 0.40 0.32 0.31
0.08 0.04 0.04 0.03 0.02 0.02 0.03 0.03 0.03 0.03 0.03 0.02 0.02 0.02 0.01 0.01 0.01 0.01 0.01 0.01 0.01 0.01 0.00 0.00 0.00 0.00 0.00 0.00 0.00 0.01 0.02 0.02 0.03 0.04 0.04 0.04 0.05 0.05 0.06 0.08 0.15 0.18 0.20 0.29
0.08 0.05 0.03 0.02 0.01 0.01 0.02 0.02 0.02 0.03 0.03 0.02 0.02 0.02 0.01 0.01 0.00 0.00 0.00 0.01 0.01 0.01 0.01 0.00 0.00 0.00 0.00 0.00 0.01 0.01 0.02 0.03 0.05 0.05 0.05 0.06 0.07 0.09 0.10 0.08 0.07 0.07 0.10 0.15
0.06 0.05 0.04 0.02 0.02 0.01 0.02 0.02 0.02 0.02 0.02 0.02 0.01 0.01 0.02 0.02 0.01 0.00 0.00 0.00 0.01 0.01 0.01 0.01 0.00 0.00 0.00 0.01 0.01 0.01 0.02 0.04 0.06 0.07 0.07 0.09 0.11 0.13 0.15 0.15 0.12 0.07 0.06 0.08
0.05 0.05 0.04 0.03 0.02 0.02 0.02 0.02 0.02 0.02 0.02 0.02 0.01 0.01 0.02 0.02 0.02 0.01 0.00 0.00 0.00 0.01 0.01 0.01 0.01 0.01 0.01 0.01 0.01 0.02 0.03 0.05 0.07 0.08 0.09 0.11 0.13 0.15 0.15 0.15 0.14 0.11 0.08 0.09
0.05 0.04 0.04 0.04 0.03 0.03 0.03 0.03 0.03 0.02 0.02 0.02 0.01 0.01 0.01 0.02 0.02 0.02 0.01 0.01 0.01 0.01 0.01 0.00 0.01 0.01 0.01 0.01 0.02 0.03 0.04 0.06 0.10 0.10 0.11 0.13 0.15 0.17 0.18 0.19 0.18 0.16 0.13 0.12
0.09 0.06 0.05 0.04 0.03 0.04 0.04 0.04 0.04 0.03 0.03 0.03 0.02 0.01 0.01 0.02 0.02 0.02 0.02 0.01 0.01 0.01 0.01 0.01 0.01 0.02 0.01 0.02 0.03 0.04 0.05 0.07 0.11 0.13 0.14 0.17 0.20 0.22 0.24 0.25 0.24 0.20 0.15 0.13
0.09 0.08 0.06 0.06 0.05 0.05 0.04 0.04 0.03 0.03 0.03 0.03 0.02 0.02 0.03 0.03 0.03 0.03 0.02 0.02 0.02 0.02 0.02 0.01 0.03 0.03 0.01 0.02 0.05 0.06 0.08 0.10 0.13 0.16 0.18 0.22 0.26 0.27 0.27 0.28 0.25 0.22 0.16 0.13
0.08 0.08 0.07 0.06 0.07 0.07 0.06 0.05 0.04 0.03 0.03 0.03 0.03 0.03 0.04 0.05 0.06 0.05 0.04 0.04 0.03 0.04 0.03 0.03 0.05 0.04 0.03 0.04 0.09 0.10 0.13 0.16 0.17 0.18 0.20 0.24 0.25 0.22 0.24 0.25 0.24 0.21 0.19 0.19
0.08 0.09 0.10 0.09 0.08 0.07 0.07 0.05 0.04 0.04 0.04 0.04 0.04 0.04 0.04 0.05 0.05 0.06 0.06 0.05 0.05 0.06 0.05 0.06 0.06 0.06 0.07 0.11 0.17 0.18 0.18 0.19 0.21 0.22 0.24 0.25 0.25 0.24 0.24 0.25 0.25 0.25 0.23 0.21
0.11 0.12 0.12 0.11 0.09 0.07 0.07 0.06 0.05 0.05 0.06 0.06 0.06 0.06 0.06 0.07 0.07 0.06 0.07 0.07 0.07 0.07 0.06 0.07 0.08 0.13 0.17 0.20 0.20 0.18 0.18 0.20 0.22 0.25 0.28 0.30 0.30 0.29 0.28 0.27 0.28 0.28 0.26 0.23
0.13 0.14 0.13 0.12 0.11 0.09 0.08 0.07 0.07 0.07 0.07 0.07 0.07 0.08 0.08 0.08 0.08 0.08 0.08 0.08 0.10 0.10 0.09 0.08 0.09 0.16 0.21 0.22 0.18 0.17 0.18 0.21 0.25 0.28 0.31 0.33 0.36 0.37 0.33 0.31 0.31 0.28 0.25 0.23
0.16 0.17 0.16 0.15 0.15 0.14 0.13 0.12 0.12 0.10 0.10 0.09 0.09 0.09 0.10 0.11 0.10 0.09 0.10 0.10 0.11 0.12 0.11 0.09 0.11 0.16 0.19 0.18 0.16 0.17 0.20 0.24 0.29 0.32 0.34 0.35 0.39 0.42 0.41 0.36 0.33 0.31 0.28 0.25
0.20 0.21 0.21 0.20 0.20 0.19 0.18 0.16 0.14 0.13 0.12 0.12 0.11 0.11 0.12 0.12 0.13 0.12 0.13 0.14 0.14 0.14 0.13 0.13 0.14 0.17 0.19 0.17 0.18 0.22 0.26 0.31 0.38 0.41 0.41 0.41 0.41 0.41 0.42 0.41 0.38 0.33 0.28 0.26
0.25 0.24 0.23 0.23 0.23 0.23 0.22 0.18 0.15 0.14 0.13 0.13 0.13 0.12 0.12 0.12 0.15 0.16 0.15 0.15 0.15 0.14 0.14 0.15 0.16 0.18 0.19 0.20 0.23 0.28 0.33 0.39 0.49 0.58 0.56 0.49 0.42 0.40 0.40 0.39 0.38 0.35 0.31 0.29
0.30 0.30 0.30 0.30 0.29 0.27 0.24 0.21 0.19 0.18 0.16 0.15 0.15 0.15 0.14 0.15 0.16 0.18 0.18 0.17 0.16 0.16 0.17 0.18 0.19 0.21 0.24 0.26 0.29 0.33 0.38 0.43 0.51 0.55 0.50 0.44 0.40 0.40 0.40 0.39 0.37 0.36 0.34 0.32
0.34 0.33 0.31 0.31 0.32 0.30 0.29 0.28 0.26 0.26 0.24 0.22 0.20 0.19 0.18 0.17 0.18 0.19 0.18 0.18 0.18 0.19 0.19 0.20 0.22 0.24 0.26 0.29 0.35 0.38 0.41 0.45 0.54 0.61 0.55 0.46 0.42 0.41 0.39 0.38 0.37 0.36 0.34 0.32